Regional Weather Roundup
Issued by NWS Sioux Falls, SD

Home | Current Version | Previous Version | Text Only | Print | Product List | Glossary Off
Versions: 1 2 3 4 5 6 7 8 9 10 11 12 13 14 15 16 17 18 19 20 21 22 23 24 25 26 27 28 29 30 31 32 33 34 35 36 37 38 39 40 41 42 43 44 45 46 47 48 49 50

097
ASUS43 KFSD 300810
RWRFSD

WEATHER ROUNDUP FOR SE SOUTH DAKOTA/SW MINNESOTA/NW IOWA
NATIONAL WEATHER SERVICE SIOUX FALLS SD
300 AM CDT MON MAY 30 2016

NOTE: "FAIR" INDICATES FEW OR NO CLOUDS BELOW 12,000 FEET WITH NO
SIGNIFICANT WEATHER AND OR OBSTRUCTIONS TO VISIBILITY.


SDZ038>040-050-052>070-300900-
SOUTHEAST SOUTH DAKOTA

CITY           SKY/WX    TMP DP  RH WIND       PRES   REMARKS
BROOKINGS      CLOUDY    58  52  80 SE5       29.99F
CHAMBERLAIN    CLOUDY    65  56  74 E8        29.98F
HURON          CLOUDY    62  51  67 S8        29.97R
MADISON        FAIR      57  57 100 CALM      30.01R
MITCHELL       LGT RAIN  66  57  72 W9        30.02R
SIOUX FALLS    CLOUDY    59  55  87 W5        30.01R
WINNER         FAIR      62  53  72 NE9       29.95R
YANKTON        CLOUDY    63  55  77 N7        30.03R
$$

MNZ071-072-080-081-089-090-097-098-300900-
SOUTHWEST MINNESOTA

CITY           SKY/WX    TMP DP  RH WIND       PRES   REMARKS
FAIRMONT       CLEAR     57  52  82 CALM      30.01F
JACKSON        CLOUDY    59  50  72 CALM      30.02F
LUVERNE        RAIN      59  52  77 NW13      30.04R
MARSHALL       CLEAR     58  52  80 S3        30.00R
MONTEVIDEO     CLEAR     55  48  76 CALM      30.00S
PIPESTONE      CLOUDY    61  52  72 E5        30.00F
REDWOOD FALLS  CLEAR     57  49  74 S6        29.99S
TRACY          CLEAR     62  53  72 SW6       30.01R
WINDOM         CLEAR     54  52  94 CALM      30.02S
WORTHINGTON    CLOUDY    58  54  86 SE5       30.01F
$$

IAZ001>003-012>014-020>022-031-032-NEZ013-014-SDZ071-300900-
NORTHWEST IOWA

CITY           SKY/WX    TMP DP  RH WIND       PRES   REMARKS
CHEROKEE       CLOUDY    59  58  99 CALM      30.01S
DENISON        CLOUDY    66  55  68 CALM      29.99S
ESTHERVILLE    CLOUDY    55  52  89 CALM      30.01F
LE MARS        CLOUDY    66  54  63 SE7       29.99F
ORANGE CITY    CLOUDY    64  54  68 CALM      29.99F
SHELDON        CLOUDY    61  54  77 SE7       29.98F
SIOUX CITY     CLOUDY    63  57  81 S3        30.00R
SPENCER        CLOUDY    57  53  86 CALM      30.01F
STORM LAKE     CLOUDY    63  52  67 SE7       30.02S
$$

ABBREVIATIONS USED IN REMARKS
   TC - TEMPERATURE IN CELSIUS
  WCI - WIND CHILL INDEX
   HX - HEAT INDEX
  VSB - VISIBILITY





USA.gov is the U.S. government's official web portal to all federal, state and local government web resources and services.